Regional Weather Roundup
Issued by NWS

Home | Current Version | Previous Version | Graphics & Text | Print | Product List | Glossary On
Versions: 1 2 3 4 5 6 7 8 9 10 11 12 13 14 15 16 17 18 19 20 21 22 23 24 25 26 27 28 29 30 31 32 33 34 35 36 37 38 39 40 41 42 43 44 45 46 47 48 49 50
807
ASUS44 KLIX 210805
RWRLA
LOUISIANA WEATHER ROUNDUP
NATIONAL WEATHER SERVICE NEW ORLEANS LA
300 AM CDT SUN SEP 21 2014

NOTE: "FAIR" INDICATES FEW OR NO CLOUDS BELOW 12,000 FEET WITH NO
      SIGNIFICANT WEATHER AND/OR OBSTRUCTIONS TO VISIBILITY.
      SKY/WX - SKY CONDITION AND SIGNIFICANT WEATHER.
      TMP - AIR TEMPERATURE.    DP   - DEWPOINT TEMPERATURE.
      RH  - RELATIVE HUMIDITY.  PRES - PRESSURE.
      HX  - HEAT INDEX.         WCI  - WIND CHILL INDEX.

*  THESE STATIONS ARE NOT NWS OR FAA STATIONS AND ARE NOT UNDER
   NWS QUALITY CONTROL.

LAZ040-048-061>063-065-066-069-210900-
SOUTHEAST LOUISIANA

CITY           SKY/WX    TMP DP  RH WIND       PRES   REMARKS
N.O. AUDUBON   NOT AVBL
N.O. INTL ARPT CLEAR     77  68  73 E3        29.96F
N.O. LAKEFRONT CLEAR     78  71  79 NE14      29.97S
N.O. DOWNTOWN* FAIR      79  66  65 NE3       29.97S
SLIDELL        CLEAR     69  66  90 NE3       29.97F
BATON ROUGE    CLEAR     71  69  93 NE5       29.99R
BOOTHVILLE     CLEAR     80  72  76 E6        29.94S
BELLE CHASSE   CLEAR     74  68  81 NE5       29.96S
BOGALUSA*        N/A     66  63  90 N3        30.00S
GALLIANO*      NOT AVBL
NEW ROADS*     FAIR      69  69  99 CALM      29.99S FOG
GONZALES*      FAIR      70  70 100 CALM      29.97S FOG
HAMMOND*       CLEAR     72  66  83 CALM      30.00S
HOUMA*         CLEAR     72  67  87 CALM      29.96S
PORT FOURCHON* SUNNY     79  72  78 NE8       29.97S

$$

LAZ041-044-053-054-210900-
SOUTHWEST LOUISIANA

CITY           SKY/WX    TMP DP  RH WIND       PRES   REMARKS
LAKE CHARLES   CLEAR     71  69  93 CALM      29.98R
LAFAYETTE      CLEAR     71  70  96 NE5       29.98S
PATTERSON      CLEAR     72  70  94 NE3       29.99S
SALT POINT       N/A     75  72  90 CALM      29.95F
NEW IBERIA     CLEAR     74  71  91 NE5       29.98S
CHENAULT AIRPK CLEAR     71  69  93 N3        29.99R

$$

LAZ027-028-210900-
CENTRAL LOUISIANA

CITY           SKY/WX    TMP DP  RH WIND       PRES   REMARKS
FORT POLK      CLEAR     70  68  93 CALM      29.99F
ALEXANDRIA INT CLEAR     68  67  96 CALM      29.98S FOG
ALEXANDRIA     CLEAR     68  67  96 CALM      30.00S FOG

$$

LAZ001-002-210900-
NORTHWEST LOUISIANA

CITY           SKY/WX    TMP DP  RH WIND       PRES   REMARKS
SHREVEPORT     CLEAR     70  66  87 CALM      30.00S
BARKSDALE AFB  CLEAR     68  66  94 S1        30.01S
DTN SHREVEPORT CLEAR     70  32  24 CALM      30.00F

$$

LAZ014-016-210900-
NORTHEAST LOUISIANA

CITY           SKY/WX    TMP DP  RH WIND       PRES   REMARKS
MONROE         CLEAR     70  68  93 CALM      30.00F FOG
TALLULAH       CLEAR     68  66  93 CALM      30.00S

$$




USA.gov is the U.S. government's official web portal to all federal, state and local government web resources and services.